| time (UTC) | temp F | wind direction | speed MPH | gust MPH | rain 1hr in | rain 24hr in | rain mn in | humidity % | barometer mb |
| 20260901074051 | 67 | 261 | 4.0 | 7.0 | 0.00 | 0.00 | 0.00 | 86 | 1014.8 |
| 20260901073109 | 67 | 99 | 3.0 | 7.0 | 0.00 | 0.00 | 0.00 | 86 | 1014.8 |
| 20260901072049 | 67 | 238 | 3.0 | 10.0 | 0.00 | 0.00 | 0.00 | 86 | 1014.9 |
| 20260901071047 | 67 | 241 | 4.0 | 10.0 | 0.00 | 0.00 | 0.00 | 86 | 1014.9 |
| 20260901070051 | 67 | 219 | 3.0 | 8.0 | 0.00 | 0.00 | 0.00 | 86 | 1014.9 |
| 20260901065050 | 67 | 163 | 4.0 | 8.0 | 0.00 | 0.00 | 0.00 | 86 | 1014.8 |
| 20260901064021 | 67 | 245 | 4.0 | 8.0 | 0.00 | 0.00 | 0.00 | 86 | 1014.7 |
| 20260901060741 | 68 | 31 | 5.0 | 9.0 | 0.00 | 0.00 | 0.00 | 86 | 1014.2 |
| 20260901055756 | 68 | 217 | 6.0 | 9.0 | 0.00 | 0.00 | 0.00 | 87 | 1014.2 |
| 20260901054728 | 68 | 189 | 4.0 | 9.0 | 0.00 | 0.00 | 0.00 | 86 | 1014.1 |
| 20260901053736 | 68 | 272 | 4.0 | 9.0 | 0.00 | 0.00 | 0.00 | 86 | 1014.3 |
| 20260901050459 | 68 | 271 | 4.0 | 8.0 | 0.00 | 0.00 | 0.00 | 87 | 1014.1 |
| 20260901045521 | 68 | 278 | 4.0 | 8.0 | 0.00 | 0.00 | 0.00 | 87 | 1014.1 |
| 20260901043346 | 68 | 252 | 4.0 | 8.0 | 0.00 | 0.00 | 0.00 | 87 | 1014.1 |
| 20260901041231 | 68 | 221 | 4.0 | 8.0 | 0.00 | 0.00 | 0.00 | 87 | 1013.9 |
| 20260901040247 | 68 | 318 | 4.0 | 8.0 | 0.00 | 0.00 | 0.00 | 88 | 1013.7 |
| 20260901035306 | 68 | 258 | 4.0 | 6.0 | 0.00 | 0.00 | 0.00 | 87 | 1013.6 |
| 20260901034253 | 68 | 279 | 4.0 | 8.0 | 0.00 | 0.00 | 0.00 | 87 | 1013.3 |
| 20260901032136 | 69 | 291 | 6.0 | 9.0 | 0.00 | 0.00 | 0.00 | 87 | 1013.1 |
| 20260901031132 | 69 | 279 | 5.0 | 9.0 | 0.00 | 0.00 | 0.00 | 87 | 1013.1 |
| 20260901030128 | 69 | 290 | 5.0 | 11.0 | 0.00 | 0.00 | 0.00 | 87 | 1013.0 |
| 20260901025125 | 70 | 298 | 5.0 | 11.0 | 0.00 | 0.00 | 0.00 | 86 | 1012.8 |
| 20260901024125 | 70 | 321 | 6.0 | 10.0 | 0.00 | 0.00 | 0.00 | 85 | 1012.8 |
| 20260901023109 | 70 | 326 | 7.0 | 11.0 | 0.00 | 0.00 | 0.00 | 84 | 1012.9 |
| 20260901022122 | 70 | 288 | 7.0 | 12.0 | 0.00 | 0.00 | 0.00 | 84 | 1012.9 |
| 20260901021116 | 71 | 292 | 8.0 | 12.0 | 0.00 | 0.00 | 0.00 | 83 | 1012.9 |
| 20260901020139 | 71 | 214 | 8.0 | 12.0 | 0.00 | 0.00 | 0.00 | 83 | 1013.1 |
| 20260901015153 | 72 | 257 | 8.0 | 12.0 | 0.00 | 0.00 | 0.00 | 82 | 1013.1 |
| 20260901014207 | 72 | 288 | 8.0 | 12.0 | 0.00 | 0.00 | 0.00 | 81 | 1013.1 |
| 20260901012102 | 73 | 288 | 8.0 | 12.0 | 0.00 | 0.00 | 0.00 | 81 | 1013.1 |
| 20260901011031 | 73 | 247 | 8.0 | 13.0 | 0.00 | 0.00 | 0.00 | 81 | 1013.1 |
| 20260901010007 | 74 | 252 | 9.0 | 14.0 | 0.00 | 0.00 | 0.00 | 80 | 1013.2 |
| 20260901004958 | 74 | 226 | 9.0 | 14.0 | 0.00 | 0.00 | 0.00 | 79 | 1013.3 |
| 20260901004001 | 74 | 126 | 9.0 | 14.0 | 0.00 | 0.00 | 0.00 | 80 | 1013.2 |
| 20260901002926 | 75 | 29 | 8.0 | 12.0 | 0.00 | 0.00 | 0.00 | 79 | 1013.2 |
| 20260901001854 | 75 | 257 | 9.0 | 13.0 | 0.00 | 0.00 | 0.00 | 79 | 1013.3 |
| 20260831234618 | 76 | 299 | 8.0 | 13.0 | 0.00 | 0.00 | 0.00 | 77 | 1013.4 |
| 20260831232432 | 76 | 167 | 7.0 | 11.0 | 0.00 | 0.00 | 0.00 | 76 | 1013.2 |
| 20260831231400 | 76 | 234 | 7.0 | 11.0 | 0.00 | 0.00 | 0.00 | 77 | 1013.3 |
| 20260831225240 | 76 | 230 | 6.0 | 12.0 | 0.00 | 0.00 | 0.00 | 76 | 1013.2 |
| 20260831223058 | 77 | 228 | 6.0 | 13.0 | 0.00 | 0.00 | 0.00 | 75 | 1013.5 |
| 20260831222038 | 77 | 149 | 8.0 | 13.0 | 0.00 | 0.00 | 0.00 | 76 | 1013.6 |
| 20260831221051 | 77 | 171 | 8.0 | 12.0 | 0.00 | 0.00 | 0.00 | 75 | 1013.7 |
| 20260831214954 | 77 | 317 | 8.0 | 12.0 | 0.00 | 0.00 | 0.00 | 75 | 1013.8 |
| 20260831213945 | 77 | 200 | 7.0 | 10.0 | 0.00 | 0.00 | 0.00 | 74 | 1013.8 |
| 20260831212925 | 78 | 248 | 6.0 | 11.0 | 0.00 | 0.00 | 0.00 | 73 | 1013.9 |
| 20260831211919 | 77 | 245 | 6.0 | 11.0 | 0.00 | 0.00 | 0.00 | 73 | 1014.0 |
| 20260831210856 | 77 | 269 | 7.0 | 10.0 | 0.00 | 0.00 | 0.00 | 74 | 1014.0 |
| 20260831205825 | 78 | 224 | 6.0 | 9.0 | 0.00 | 0.00 | 0.00 | 73 | 1014.0 |
| 20260831204837 | 77 | 13 | 6.0 | 11.0 | 0.00 | 0.00 | 0.00 | 73 | 1014.2 |
| 20260831202633 | 78 | 272 | 6.0 | 9.0 | 0.00 | 0.00 | 0.00 | 74 | 1014.2 |
| 20260831201648 | 77 | 251 | 7.0 | 12.0 | 0.00 | 0.00 | 0.00 | 75 | 1014.2 |
| 20260831200633 | 77 | 245 | 7.0 | 12.0 | 0.00 | 0.00 | 0.00 | 76 | 1014.3 |
| 20260831195651 | 77 | 139 | 6.0 | 10.0 | 0.00 | 0.00 | 0.00 | 74 | 1014.3 |
| 20260831194623 | 77 | 267 | 7.0 | 10.0 | 0.00 | 0.00 | 0.00 | 75 | 1014.4 |
| 20260831192501 | 77 | 261 | 7.0 | 10.0 | 0.00 | 0.00 | 0.00 | 75 | 1014.6 |
| 20260831191521 | 78 | 259 | 6.0 | 9.0 | 0.00 | 0.00 | 0.00 | 74 | 1014.6 |
| 20260831190449 | 78 | 344 | 5.0 | 9.0 | 0.00 | 0.00 | 0.00 | 74 | 1014.6 |
| 20260831185445 | 78 | 49 | 5.0 | 8.0 | 0.00 | 0.00 | 0.00 | 75 | 1014.7 |
| 20260831184504 | 77 | 291 | 5.0 | 8.0 | 0.00 | 0.00 | 0.00 | 75 | 1014.6 |
| 20260831183445 | 77 | 203 | 5.0 | 9.0 | 0.00 | 0.00 | 0.00 | 76 | 1014.6 |
| 20260831182448 | 76 | 184 | 5.0 | 9.0 | 0.00 | 0.00 | 0.00 | 76 | 1014.6 |
| 20260831181443 | 77 | 230 | 5.0 | 9.0 | 0.00 | 0.00 | 0.00 | 76 | 1014.6 |
| 20260831180458 | 76 | 238 | 4.0 | 8.0 | 0.00 | 0.00 | 0.00 | 77 | 1014.6 |
| 20260831173219 | 76 | 84 | 3.0 | 8.0 | 0.00 | 0.00 | 0.00 | 78 | 1014.5 |
| 20260831172221 | 76 | 275 | 3.0 | 7.0 | 0.00 | 0.00 | 0.00 | 77 | 1014.5 |
| 20260831171147 | 76 | 75 | 3.0 | 7.0 | 0.00 | 0.00 | 0.00 | 79 | 1014.5 |
| 20260831170200 | 75 | 309 | 3.0 | 9.0 | 0.00 | 0.00 | 0.00 | 80 | 1014.3 |
| 20260831162839 | 74 | 153 | 1.0 | 4.0 | 0.00 | 0.00 | 0.00 | 81 | 1014.0 |
| 20260831161830 | 74 | 188 | 1.0 | 4.0 | 0.00 | 0.00 | 0.00 | 82 | 1013.9 |
| 20260831160809 | 74 | 340 | 1.0 | 4.0 | 0.00 | 0.00 | 0.00 | 82 | 1014.0 |
| 20260831155813 | 73 | 209 | 0.0 | 3.0 | 0.00 | 0.00 | 0.00 | 84 | 1013.9 |
| 20260831154752 | 72 | 159 | 0.0 | 3.0 | 0.00 | 0.00 | 0.00 | 84 | 1013.9 |
| 20260831153752 | 72 | 143 | 0.0 | 1.0 | 0.00 | 0.00 | 0.00 | 86 | 1013.8 |
| 20260831152725 | 72 | 257 | 0.0 | 1.0 | 0.00 | 0.00 | 0.00 | 86 | 1013.8 |
| 20260831151654 | 72 | 269 | 0.0 | 3.0 | 0.00 | 0.00 | 0.00 | 86 | 1013.7 |
| 20260831150713 | 72 | 250 | 0.0 | 0.0 | 0.00 | 0.00 | 0.00 | 87 | 1013.6 |
| 20260831145643 | 71 | 250 | 0.0 | 3.0 | 0.00 | 0.00 | 0.00 | 87 | 1013.6 |
| 20260831144646 | 71 | 206 | 0.0 | 1.0 | 0.00 | 0.00 | 0.00 | 89 | 1013.6 |
| 20260831143646 | 71 | 134 | 0.0 | 0.0 | 0.00 | 0.00 | 0.00 | 89 | 1013.5 |
| 20260831142705 | 70 | 134 | 0.0 | 0.0 | 0.00 | 0.00 | 0.00 | 90 | 1013.3 |
| 20260831141702 | 69 | 134 | 0.0 | 0.0 | 0.00 | 0.00 | 0.00 | 90 | 1013.2 |
| 20260831140654 | 68 | 134 | 0.0 | 0.0 | 0.00 | 0.00 | 0.00 | 90 | 1013.1 |
| 20260831134534 | 68 | 134 | 0.0 | 0.0 | 0.00 | 0.00 | 0.00 | 89 | 1012.7 |
| 20260831133555 | 68 | 134 | 0.0 | 0.0 | 0.00 | 0.00 | 0.00 | 90 | 1012.7 |
| 20260831132538 | 68 | 134 | 0.0 | 0.0 | 0.00 | 0.00 | 0.00 | 89 | 1012.5 |
| 20260831131532 | 68 | 213 | 0.0 | 1.0 | 0.00 | 0.00 | 0.00 | 89 | 1012.5 |
| 20260831130526 | 68 | 216 | 0.0 | 1.0 | 0.00 | 0.00 | 0.00 | 89 | 1012.5 |
| 20260831125504 | 68 | 212 | 0.0 | 0.0 | 0.00 | 0.00 | 0.00 | 89 | 1012.5 |
| 20260831124505 | 68 | 204 | 0.0 | 0.0 | 0.00 | 0.00 | 0.00 | 89 | 1012.5 |
| 20260831123527 | 68 | 204 | 0.0 | 0.0 | 0.00 | 0.00 | 0.00 | 89 | 1012.3 |
| 20260831122506 | 68 | 204 | 0.0 | 2.0 | 0.00 | 0.00 | 0.00 | 89 | 1012.4 |
| 20260831121508 | 68 | 203 | 0.0 | 1.0 | 0.00 | 0.00 | 0.00 | 89 | 1012.5 |
| 20260831115342 | 69 | 133 | 0.0 | 1.0 | 0.00 | 0.00 | 0.00 | 89 | 1012.5 |
| 20260831114319 | 69 | 214 | 0.0 | 1.0 | 0.00 | 0.00 | 0.00 | 89 | 1012.4 |
| 20260831112144 | 69 | 143 | 0.0 | 2.0 | 0.00 | 0.00 | 0.00 | 88 | 1012.5 |
| 20260831111119 | 69 | 197 | 0.0 | 2.0 | 0.00 | 0.00 | 0.00 | 88 | 1012.6 |
| 20260831105012 | 69 | 137 | 0.0 | 2.0 | 0.00 | 0.00 | 0.00 | 88 | 1012.5 |
| 20260831103950 | 69 | 128 | 1.0 | 3.0 | 0.00 | 0.00 | 0.00 | 88 | 1012.6 |
| 20260831102919 | 70 | 144 | 0.0 | 3.0 | 0.00 | 0.00 | 0.00 | 88 | 1012.6 |
| 20260831101926 | 70 | 171 | 0.0 | 3.0 | 0.00 | 0.00 | 0.00 | 88 | 1012.6 |
| 20260831100904 | 70 | 241 | 1.0 | 3.0 | 0.00 | 0.00 | 0.00 | 87 | 1012.6 |
| 20260831095928 | 70 | 146 | 1.0 | 3.0 | 0.00 | 0.00 | 0.00 | 88 | 1012.6 |
| 20260831094919 | 70 | 141 | 1.0 | 4.0 | 0.00 | 0.00 | 0.00 | 87 | 1012.6 |
| 20260831093942 | 71 | 139 | 1.0 | 5.0 | 0.00 | 0.00 | 0.00 | 87 | 1012.5 |
| 20260831093000 | 71 | 170 | 1.0 | 5.0 | 0.00 | 0.00 | 0.00 | 86 | 1012.6 |
| 20260831091936 | 70 | 177 | 1.0 | 4.0 | 0.00 | 0.00 | 0.00 | 86 | 1012.6 |
| 20260831090940 | 70 | 93 | 3.0 | 8.0 | 0.00 | 0.00 | 0.00 | 85 | 1012.6 |
| 20260831084746 | 71 | 257 | 1.0 | 6.0 | 0.00 | 0.00 | 0.00 | 85 | 1012.6 |
| 20260831083737 | 70 | 233 | 2.0 | 6.0 | 0.00 | 0.00 | 0.00 | 85 | 1012.5 |
| 20260831082736 | 71 | 6 | 2.0 | 5.0 | 0.00 | 0.00 | 0.00 | 84 | 1012.4 |
| 20260831081716 | 71 | 186 | 3.0 | 5.0 | 0.00 | 0.00 | 0.00 | 84 | 1012.6 |
| 20260831080740 | 71 | 241 | 2.0 | 5.0 | 0.00 | 0.00 | 0.00 | 84 | 1012.7 |
| 20260831075801 | 71 | 260 | 3.0 | 6.0 | 0.00 | 0.00 | 0.00 | 83 | 1012.6 |
| 20260831074824 | 71 | 134 | 3.0 | 8.0 | 0.00 | 0.00 | 0.00 | 83 | 1012.6 |